Weather in Faizobod

Tajikistan     38°31′02″N   69°19′20″E
temp.,
°C
wind,
m/s
gust,
m/s
humid.,
%
clouds,
%
prec.,
mm/h
press.,
hPa
HPBL,
m
5 march, fri
fri523:00+6ene228476 8.2 102430
02:00+5e338673 3.4 102538
05:00+5se119274 5.2 102523
08:00+5nw0098100 2.9 1026105
11:00+5se2294100 7.3 1026191
14:00+8ene127797 0.6 1024564
17:00+8ne567561 0.6 1022365
20:00+5ne67650 0.0 1023117
6 march, sat
sat623:00+5ne685624 0.0 1022115
02:00+5ne6850100 0.0 1018112
05:00+6ne794799 0.0 1015112
08:00+7ne6746100 0.0 1012115
11:00+10ne3456100 0.0 1012144
14:00+7ne5676100 2.1 1012696
17:00+5ese2391100 7.0 1013311
20:00+5sse1296100 3.9 1016180
7 march, sun
sun723:00+4se1296100 10.0 1018164
02:00+4ssw3498100 2.7 1019255
05:00+3ssw2298100 5.5 1019186
08:00+3s1297100 1.8 1021160
11:00+3ssw2294100 2.5 1021192
14:00+7nne117597 0.1 1018631
17:00+8nnw116583 0.1 1017689
20:00+5ne22750 0.0 101928
8 march, mon
mon823:00+4ene34640 0.0 101945
02:00+3ne44600 0.0 101952
05:00+3ne45590 0.0 101954
08:00+5ne445967 0.0 102070
11:00+10ne224683 0.0 1019435
14:00+13nne2140100 0.0 10181033
17:00+12nne1249100 0.0 1018150
20:00+8ne3352100 0.0 102043
9 march, tue
tue923:00+7ne4552100 0.0 102070
02:00+7ne5749100 0.0 101893
05:00+7ne6751100 0.0 1016134
08:00+7ne4557100 0.0 1015105
11:00+12ene3447100 0.0 1014275
14:00+13ene4344100 0.0 1011540
17:00+10nne5660100 0.1 1011205
20:00+9ne4462100 0.0 101289